Back to catalog

FLOCK 4BE 22

AliveScienceSSO
NORAD 60494·PAYLOAD·🇺🇸 United States

Launched Aug 16, 2024 from Vandenberg Space Force Base

Loading…

Next Passes (next 24 hours)

TLE

FreshSource: CelesTrak SupGP

Epoch: Sep 14, 2026, 16:45 UTC

1 60494C 24149BH  26257.69804398  .00039829  00000+0  86877-3 0  2578
2 60494  97.3688 342.2621 0002157 311.1680 273.5848 15.44232248    14

Track FLOCK 4BE 22 in real time with AllMySat

Download on the App Store